QPF
0.01 0.01 0.01 0.00 0.00 0.00 0.00 0.00 0.00 0.00 0.00 0.00 0.00 0.01 0.04 0.07 0.08 0.08 0.06 0.04 0.03 0.03 0.04 0.05 0.05 0.05 0.06 0.06 0.06 0.05 0.05 0.06 0.06 0.05 0.05 0.05 0.05 0.05 0.04 0.05 0.05 0.04 0.04
0.03 0.03 0.02 0.01 0.02 0.01 0.00 0.00 0.00 0.00 0.00 0.00 0.00 0.00 0.01 0.04 0.05 0.06 0.05 0.03 0.02 0.03 0.05 0.06 0.07 0.07 0.07 0.06 0.06 0.06 0.04 0.04 0.06 0.05 0.04 0.04 0.03 0.03 0.03 0.04 0.04 0.03 0.03
0.02 0.03 0.04 0.02 0.02 0.01 0.00 0.00 0.00 0.00 0.00 0.00 0.01 0.00 0.01 0.02 0.04 0.05 0.05 0.04 0.04 0.05 0.05 0.07 0.08 0.09 0.09 0.07 0.04 0.04 0.04 0.05 0.06 0.05 0.04 0.04 0.05 0.04 0.03 0.03 0.04 0.04 0.05
0.05 0.03 0.04 0.03 0.01 0.01 0.01 0.00 0.00 0.00 0.01 0.01 0.01 0.01 0.00 0.00 0.01 0.03 0.05 0.05 0.06 0.08 0.09 0.09 0.09 0.08 0.07 0.07 0.05 0.04 0.03 0.03 0.04 0.05 0.04 0.06 0.10 0.08 0.03 0.02 0.03 0.04 0.05
0.06 0.06 0.04 0.02 0.02 0.01 0.01 0.01 0.01 0.01 0.00 0.00 0.01 0.01 0.01 0.01 0.01 0.01 0.02 0.05 0.06 0.08 0.09 0.08 0.08 0.07 0.07 0.07 0.06 0.04 0.04 0.03 0.04 0.06 0.08 0.11 0.10 0.05 0.03 0.03 0.03 0.02 0.02
0.06 0.05 0.04 0.03 0.02 0.02 0.02 0.02 0.02 0.01 0.00 0.00 0.00 0.00 0.01 0.01 0.01 0.02 0.02 0.03 0.04 0.05 0.05 0.05 0.06 0.07 0.06 0.05 0.05 0.04 0.04 0.05 0.05 0.07 0.10 0.09 0.07 0.05 0.04 0.03 0.03 0.02 0.02
0.02 0.02 0.01 0.03 0.03 0.02 0.03 0.02 0.02 0.02 0.01 0.01 0.01 0.00 0.00 0.00 0.01 0.01 0.02 0.02 0.03 0.03 0.03 0.04 0.04 0.04 0.02 0.02 0.02 0.03 0.02 0.03 0.04 0.05 0.05 0.04 0.05 0.06 0.06 0.04 0.03 0.02 0.02
0.02 0.03 0.03 0.03 0.03 0.04 0.04 0.05 0.06 0.03 0.02 0.03 0.03 0.02 0.01 0.01 0.01 0.01 0.01 0.01 0.02 0.01 0.01 0.01 0.02 0.02 0.01 0.01 0.01 0.02 0.03 0.02 0.02 0.02 0.03 0.03 0.03 0.04 0.05 0.04 0.03 0.02 0.02
0.03 0.06 0.06 0.05 0.05 0.04 0.02 0.03 0.05 0.07 0.05 0.05 0.05 0.04 0.03 0.02 0.01 0.01 0.01 0.01 0.01 0.01 0.01 0.01 0.02 0.02 0.01 0.02 0.03 0.02 0.01 0.01 0.01 0.01 0.01 0.01 0.01 0.03 0.06 0.06 0.06 0.05 0.03
0.02 0.04 0.05 0.05 0.05 0.03 0.02 0.02 0.02 0.04 0.04 0.04 0.05 0.06 0.06 0.04 0.02 0.02 0.02 0.02 0.02 0.01 0.01 0.02 0.02 0.02 0.01 0.02 0.03 0.02 0.02 0.01 0.01 0.02 0.01 0.01 0.01 0.02 0.03 0.04 0.05 0.04 0.04
0.02 0.03 0.05 0.06 0.03 0.02 0.02 0.02 0.01 0.01 0.02 0.03 0.06 0.06 0.05 0.04 0.04 0.04 0.03 0.03 0.03 0.03 0.03 0.03 0.03 0.02 0.01 0.01 0.02 0.03 0.03 0.02 0.02 0.01 0.01 0.01 0.04 0.03 0.03 0.03 0.03 0.03 0.04
0.02 0.02 0.03 0.05 0.04 0.03 0.03 0.01 0.01 0.01 0.02 0.04 0.09 0.11 0.10 0.08 0.07 0.06 0.06 0.05 0.05 0.04 0.03 0.03 0.03 0.03 0.01 0.01 0.02 0.03 0.03 0.03 0.02 0.03 0.02 0.02 0.03 0.03 0.02 0.02 0.03 0.04 0.04
0.01 0.01 0.01 0.03 0.03 0.02 0.03 0.03 0.02 0.03 0.05 0.06 0.08 0.09 0.09 0.07 0.05 0.05 0.05 0.04 0.04 0.03 0.03 0.03 0.03 0.02 0.01 0.01 0.02 0.04 0.04 0.03 0.02 0.02 0.02 0.01 0.02 0.02 0.02 0.03 0.03 0.04 0.06
0.01 0.01 0.01 0.01 0.01 0.01 0.02 0.03 0.04 0.04 0.06 0.07 0.06 0.06 0.06 0.05 0.05 0.03 0.03 0.03 0.03 0.03 0.03 0.03 0.02 0.02 0.02 0.02 0.03 0.04 0.04 0.03 0.03 0.02 0.01 0.01 0.02 0.02 0.03 0.04 0.04 0.05 0.06
0.02 0.02 0.02 0.02 0.02 0.02 0.02 0.04 0.06 0.08 0.13 0.17 0.12 0.08 0.08 0.06 0.05 0.04 0.04 0.03 0.03 0.03 0.03 0.02 0.03 0.05 0.04 0.03 0.04 0.05 0.04 0.04 0.02 0.02 0.02 0.03 0.03 0.04 0.06 0.05 0.04 0.05 0.06
0.04 0.04 0.04 0.04 0.05 0.05 0.05 0.07 0.10 0.15 0.20 0.17 0.15 0.10 0.08 0.07 0.06 0.06 0.07 0.05 0.05 0.05 0.06 0.07 0.06 0.05 0.04 0.04 0.06 0.06 0.06 0.04 0.03 0.03 0.03 0.04 0.04 0.05 0.05 0.04 0.03 0.04 0.04
0.05 0.06 0.04 0.04 0.05 0.05 0.05 0.05 0.06 0.10 0.16 0.21 0.19 0.15 0.10 0.09 0.08 0.08 0.07 0.06 0.07 0.09 0.09 0.08 0.07 0.06 0.05 0.06 0.05 0.06 0.05 0.04 0.03 0.04 0.04 0.03 0.03 0.03 0.03 0.04 0.04 0.04 0.04
0.07 0.07 0.07 0.08 0.05 0.03 0.03 0.03 0.04 0.06 0.09 0.14 0.14 0.13 0.11 0.10 0.11 0.11 0.09 0.10 0.12 0.12 0.11 0.08 0.06 0.05 0.05 0.06 0.06 0.05 0.05 0.05 0.05 0.04 0.04 0.05 0.05 0.04 0.05 0.04 0.04 0.03 0.03
0.05 0.08 0.09 0.06 0.04 0.03 0.04 0.05 0.08 0.10 0.09 0.14 0.14 0.12 0.12 0.11 0.11 0.11 0.13 0.13 0.13 0.13 0.12 0.10 0.07 0.06 0.05 0.05 0.05 0.05 0.05 0.05 0.05 0.06 0.07 0.08 0.07 0.06 0.06 0.04 0.04 0.03 0.02
0.03 0.06 0.08 0.07 0.10 0.10 0.08 0.07 0.09 0.09 0.07 0.10 0.19 0.22 0.22 0.19 0.14 0.12 0.13 0.14 0.17 0.16 0.14 0.10 0.08 0.07 0.06 0.06 0.07 0.07 0.07 0.07 0.07 0.06 0.06 0.07 0.07 0.07 0.07 0.05 0.04 0.04 0.03
0.02 0.02 0.04 0.06 0.08 0.08 0.07 0.07 0.08 0.10 0.11 0.13 0.15 0.19 0.22 0.20 0.18 0.16 0.14 0.15 0.15 0.14 0.13 0.12 0.11 0.11 0.10 0.08 0.07 0.06 0.07 0.06 0.06 0.05 0.06 0.07 0.08 0.08 0.08 0.08 0.07 0.07 0.07
0.02 0.02 0.02 0.03 0.04 0.05 0.05 0.06 0.07 0.08 0.11 0.16 0.19 0.19 0.20 0.22 0.22 0.18 0.14 0.12 0.12 0.12 0.12 0.10 0.09 0.10 0.10 0.10 0.10 0.09 0.08 0.07 0.07 0.07 0.07 0.07 0.08 0.08 0.08 0.08 0.08 0.10 0.10
0.02 0.02 0.03 0.02 0.03 0.04 0.04 0.04 0.05 0.07 0.10 0.12 0.11 0.13 0.14 0.15 0.16 0.14 0.12 0.10 0.10 0.09 0.09 0.09 0.10 0.13 0.12 0.11 0.10 0.11 0.09 0.08 0.08 0.07 0.07 0.07 0.08 0.08 0.09 0.08 0.07 0.08 0.08
0.02 0.02 0.03 0.03 0.03 0.03 0.03 0.04 0.04 0.05 0.07 0.08 0.08 0.08 0.08 0.08 0.09 0.10 0.10 0.10 0.10 0.09 0.08 0.07 0.09 0.10 0.10 0.07 0.06 0.05 0.04 0.04 0.04 0.05 0.05 0.06 0.05 0.05 0.05 0.05 0.06 0.06 0.07
0.03 0.03 0.04 0.04 0.03 0.02 0.02 0.03 0.03 0.04 0.05 0.06 0.06 0.06 0.06 0.07 0.07 0.07 0.07 0.10 0.10 0.09 0.09 0.09 0.09 0.09 0.09 0.07 0.05 0.02 0.01 0.01 0.02 0.04 0.03 0.03 0.04 0.04 0.03 0.04 0.04 0.03 0.02
0.04 0.04 0.03 0.02 0.02 0.01 0.02 0.03 0.03 0.04 0.05 0.05 0.05 0.05 0.06 0.07 0.08 0.08 0.08 0.12 0.12 0.10 0.09 0.09 0.09 0.10 0.10 0.08 0.07 0.04 0.02 0.02 0.03 0.03 0.03 0.04 0.03 0.04 0.04 0.04 0.03 0.02 0.01
MSLP
1007.02 1007.71 1008.45 1009.19 1009.91 1010.60 1011.26 1011.91 1012.53 1013.13 1013.70 1014.20 1014.61 1014.92 1015.13 1015.23 1015.26 1015.26 1015.26 1015.31 1015.43 1015.63 1015.91 1016.25 1016.63 1017.02 1017.40 1017.75 1018.07 1018.36 1018.61 1018.83 1019.02 1019.16 1019.25 1019.26 1019.20 1019.06 1018.87 1018.64 1018.41 1018.22 1018.10
1006.75 1007.48 1008.24 1008.99 1009.70 1010.36 1011.00 1011.63 1012.26 1012.90 1013.53 1014.12 1014.63 1015.03 1015.29 1015.43 1015.45 1015.41 1015.34 1015.31 1015.34 1015.47 1015.70 1016.01 1016.38 1016.78 1017.17 1017.54 1017.89 1018.20 1018.49 1018.74 1018.97 1019.15 1019.29 1019.34 1019.32 1019.20 1019.00 1018.75 1018.46 1018.19 1017.96
1006.81 1007.52 1008.25 1008.95 1009.60 1010.20 1010.77 1011.34 1011.95 1012.60 1013.28 1013.94 1014.54 1015.03 1015.38 1015.57 1015.62 1015.57 1015.47 1015.38 1015.35 1015.41 1015.57 1015.82 1016.15 1016.51 1016.88 1017.24 1017.58 1017.90 1018.20 1018.49 1018.77 1019.01 1019.22 1019.35 1019.40 1019.35 1019.18 1018.93 1018.62 1018.28 1017.96
1007.23 1007.85 1008.49 1009.09 1009.63 1010.12 1010.58 1011.06 1011.61 1012.23 1012.91 1013.62 1014.29 1014.87 1015.31 1015.58 1015.68 1015.66 1015.56 1015.44 1015.36 1015.36 1015.46 1015.65 1015.91 1016.22 1016.54 1016.86 1017.17 1017.48 1017.79 1018.10 1018.42 1018.73 1019.02 1019.25 1019.40 1019.43 1019.34 1019.12 1018.81 1018.44 1018.04
1007.98 1008.45 1008.96 1009.42 1009.80 1010.14 1010.45 1010.81 1011.25 1011.80 1012.45 1013.16 1013.87 1014.50 1015.01 1015.36 1015.53 1015.55 1015.48 1015.38 1015.28 1015.25 1015.30 1015.44 1015.64 1015.88 1016.15 1016.42 1016.69 1016.97 1017.27 1017.59 1017.95 1018.33 1018.69 1019.02 1019.26 1019.40 1019.39 1019.23 1018.95 1018.57 1018.12
1008.97 1009.28 1009.61 1009.89 1010.11 1010.26 1010.41 1010.60 1010.91 1011.34 1011.91 1012.58 1013.27 1013.92 1014.47 1014.87 1015.10 1015.19 1015.17 1015.09 1015.02 1014.99 1015.02 1015.13 1015.29 1015.49 1015.70 1015.93 1016.16 1016.41 1016.69 1017.02 1017.39 1017.81 1018.23 1018.64 1018.97 1019.19 1019.27 1019.19 1018.96 1018.59 1018.13
1010.09 1010.22 1010.37 1010.48 1010.51 1010.49 1010.46 1010.48 1010.62 1010.91 1011.36 1011.92 1012.54 1013.16 1013.70 1014.12 1014.39 1014.52 1014.56 1014.54 1014.51 1014.51 1014.57 1014.68 1014.83 1015.01 1015.20 1015.40 1015.60 1015.82 1016.09 1016.40 1016.78 1017.21 1017.66 1018.11 1018.51 1018.81 1018.96 1018.96 1018.79 1018.48 1018.04
1011.20 1011.17 1011.16 1011.11 1010.98 1010.79 1010.59 1010.45 1010.42 1010.55 1010.84 1011.26 1011.76 1012.29 1012.77 1013.16 1013.43 1013.60 1013.68 1013.72 1013.75 1013.81 1013.91 1014.06 1014.24 1014.44 1014.64 1014.84 1015.03 1015.24 1015.48 1015.77 1016.13 1016.55 1017.01 1017.47 1017.90 1018.24 1018.46 1018.53 1018.45 1018.21 1017.84
1012.19 1012.02 1011.88 1011.69 1011.43 1011.11 1010.78 1010.49 1010.31 1010.28 1010.40 1010.65 1011.00 1011.39 1011.77 1012.09 1012.33 1012.49 1012.60 1012.69 1012.78 1012.91 1013.09 1013.30 1013.54 1013.78 1014.02 1014.24 1014.44 1014.65 1014.88 1015.15 1015.48 1015.87 1016.30 1016.75 1017.18 1017.55 1017.82 1017.96 1017.95 1017.80 1017.53
1012.94 1012.67 1012.42 1012.14 1011.79 1011.38 1010.95 1010.56 1010.26 1010.09 1010.05 1010.14 1010.33 1010.56 1010.80 1011.02 1011.18 1011.32 1011.43 1011.55 1011.69 1011.89 1012.13 1012.42 1012.74 1013.05 1013.34 1013.60 1013.83 1014.05 1014.27 1014.53 1014.82 1015.17 1015.57 1015.98 1016.40 1016.77 1017.07 1017.27 1017.35 1017.31 1017.15
1013.38 1013.04 1012.72 1012.36 1011.95 1011.50 1011.02 1010.57 1010.20 1009.93 1009.77 1009.72 1009.75 1009.84 1009.94 1010.03 1010.11 1010.19 1010.27 1010.40 1010.57 1010.82 1011.13 1011.48 1011.86 1012.24 1012.59 1012.90 1013.18 1013.42 1013.65 1013.89 1014.16 1014.47 1014.82 1015.20 1015.59 1015.96 1016.28 1016.52 1016.68 1016.75 1016.71
1013.52 1013.10 1012.71 1012.30 1011.86 1011.38 1010.89 1010.43 1010.03 1009.71 1009.48 1009.34 1009.26 1009.22 1009.20 1009.18 1009.17 1009.18 1009.22 1009.33 1009.51 1009.78 1010.12 1010.52 1010.95 1011.38 1011.78 1012.14 1012.45 1012.72 1012.96 1013.20 1013.46 1013.74 1014.06 1014.41 1014.77 1015.13 1015.46 1015.75 1015.97 1016.13 1016.20
1013.36 1012.87 1012.40 1011.93 1011.45 1010.96 1010.49 1010.05 1009.66 1009.35 1009.11 1008.92 1008.78 1008.66 1008.56 1008.45 1008.37 1008.31 1008.31 1008.38 1008.55 1008.81 1009.16 1009.57 1010.02 1010.47 1010.90 1011.29 1011.63 1011.92 1012.19 1012.44 1012.70 1012.97 1013.28 1013.61 1013.95 1014.30 1014.63 1014.94 1015.22 1015.44 1015.60
1012.96 1012.36 1011.78 1011.23 1010.71 1010.21 1009.76 1009.36 1009.03 1008.76 1008.55 1008.39 1008.24 1008.10 1007.95 1007.80 1007.67 1007.57 1007.52 1007.56 1007.69 1007.93 1008.25 1008.65 1009.08 1009.53 1009.96 1010.35 1010.71 1011.02 1011.31 1011.59 1011.86 1012.15 1012.45 1012.78 1013.11 1013.45 1013.79 1014.10 1014.40 1014.65 1014.87
1012.38 1011.63 1010.92 1010.27 1009.68 1009.16 1008.72 1008.37 1008.11 1007.92 1007.78 1007.68 1007.57 1007.46 1007.32 1007.17 1007.03 1006.90 1006.83 1006.84 1006.93 1007.13 1007.41 1007.76 1008.15 1008.56 1008.96 1009.35 1009.70 1010.03 1010.34 1010.64 1010.94 1011.26 1011.58 1011.91 1012.25 1012.58 1012.91 1013.22 1013.50 1013.76 1014.00
1011.68 1010.75 1009.89 1009.11 1008.43 1007.88 1007.44 1007.14 1006.95 1006.85 1006.81 1006.79 1006.76 1006.71 1006.63 1006.52 1006.39 1006.27 1006.20 1006.18 1006.25 1006.40 1006.62 1006.91 1007.25 1007.60 1007.96 1008.31 1008.65 1008.98 1009.31 1009.64 1009.98 1010.33 1010.68 1011.03 1011.37 1011.70 1012.01 1012.29 1012.55 1012.79 1013.00
1010.92 1009.81 1008.78 1007.87 1007.10 1006.50 1006.06 1005.78 1005.66 1005.64 1005.69 1005.77 1005.84 1005.87 1005.87 1005.82 1005.74 1005.66 1005.60 1005.59 1005.64 1005.75 1005.92 1006.15 1006.41 1006.70 1007.00 1007.31 1007.63 1007.95 1008.29 1008.64 1009.01 1009.40 1009.78 1010.15 1010.51 1010.83 1011.11 1011.35 1011.57 1011.76 1011.94
1010.17 1008.90 1007.73 1006.69 1005.83 1005.17 1004.72 1004.47 1004.38 1004.43 1004.56 1004.72 1004.88 1005.00 1005.08 1005.11 1005.10 1005.08 1005.06 1005.07 1005.11 1005.20 1005.34 1005.51 1005.71 1005.93 1006.17 1006.43 1006.71 1007.01 1007.35 1007.72 1008.11 1008.53 1008.94 1009.33 1009.69 1010.00 1010.26 1010.46 1010.63 1010.76 1010.89
1009.50 1008.11 1006.82 1005.70 1004.77 1004.07 1003.59 1003.34 1003.28 1003.36 1003.54 1003.76 1003.99 1004.18 1004.34 1004.45 1004.51 1004.56 1004.60 1004.64 1004.71 1004.80 1004.91 1005.04 1005.19 1005.35 1005.52 1005.72 1005.96 1006.23 1006.56 1006.93 1007.33 1007.76 1008.19 1008.60 1008.96 1009.26 1009.50 1009.67 1009.79 1009.88 1009.96
1008.96 1007.50 1006.16 1004.99 1004.02 1003.29 1002.80 1002.53 1002.47 1002.56 1002.75 1002.99 1003.26 1003.50 1003.72 1003.89 1004.03 1004.15 1004.26 1004.36 1004.46 1004.56 1004.67 1004.77 1004.88 1004.98 1005.10 1005.24 1005.42 1005.66 1005.95 1006.30 1006.70 1007.13 1007.56 1007.98 1008.34 1008.64 1008.86 1009.01 1009.10 1009.16 1009.20
1008.61 1007.14 1005.80 1004.62 1003.65 1002.90 1002.39 1002.10 1002.01 1002.07 1002.24 1002.47 1002.74 1003.00 1003.26 1003.49 1003.69 1003.88 1004.06 1004.22 1004.37 1004.50 1004.61 1004.70 1004.77 1004.82 1004.89 1004.97 1005.09 1005.27 1005.52 1005.83 1006.21 1006.62 1007.05 1007.46 1007.83 1008.13 1008.35 1008.50 1008.58 1008.63 1008.66
1008.46 1007.04 1005.74 1004.59 1003.64 1002.89 1002.36 1002.03 1001.89 1001.90 1002.01 1002.20 1002.44 1002.70 1002.97 1003.23 1003.49 1003.75 1003.99 1004.21 1004.41 1004.57 1004.70 1004.78 1004.82 1004.84 1004.84 1004.86 1004.92 1005.04 1005.23 1005.49 1005.83 1006.22 1006.63 1007.03 1007.40 1007.71 1007.94 1008.11 1008.21 1008.27 1008.32
1008.51 1007.18 1005.96 1004.87 1003.95 1003.20 1002.64 1002.26 1002.05 1001.97 1002.00 1002.13 1002.31 1002.54 1002.81 1003.10 1003.40 1003.71 1004.01 1004.29 1004.54 1004.73 1004.87 1004.95 1004.96 1004.94 1004.89 1004.85 1004.84 1004.89 1005.02 1005.23 1005.52 1005.87 1006.25 1006.65 1007.02 1007.34 1007.61 1007.80 1007.94 1008.05 1008.14
1008.75 1007.53 1006.39 1005.37 1004.47 1003.73 1003.13 1002.68 1002.38 1002.20 1002.14 1002.18 1002.30 1002.49 1002.74 1003.05 1003.38 1003.74 1004.09 1004.41 1004.70 1004.92 1005.06 1005.13 1005.12 1005.05 1004.96 1004.85 1004.78 1004.77 1004.84 1004.99 1005.24 1005.55 1005.91 1006.30 1006.67 1007.02 1007.31 1007.55 1007.75 1007.91 1008.05
1009.12 1008.02 1006.97 1006.00 1005.13 1004.36 1003.71 1003.19 1002.78 1002.50 1002.34 1002.29 1002.34 1002.49 1002.73 1003.04 1003.40 1003.78 1004.17 1004.53 1004.84 1005.08 1005.22 1005.27 1005.24 1005.13 1004.99 1004.84 1004.72 1004.66 1004.67 1004.79 1004.99 1005.27 1005.61 1005.99 1006.37 1006.74 1007.07 1007.35 1007.60 1007.82 1008.02
1009.59 1008.58 1007.61 1006.68 1005.82 1005.02 1004.32 1003.71 1003.21 1002.83 1002.57 1002.44 1002.43 1002.54 1002.76 1003.07 1003.45 1003.85 1004.26 1004.64 1004.96 1005.20 1005.33 1005.36 1005.30 1005.17 1004.99 1004.81 1004.66 1004.57 1004.56 1004.64 1004.82 1005.09 1005.42 1005.79 1006.17 1006.55 1006.91 1007.24 1007.53 1007.80 1008.05
Thickness
5820 5819 5818 5816 5811 5808 5805 5801 5798 5795 5792 5788 5784 5781 5779 5779 5779 5779 5778 5777 5775 5774 5772 5770 5769 5767 5764 5763 5762 5760 5758 5756 5756 5753 5750 5752 5754 5754 5754 5754 5753 5752 5751
5817 5816 5816 5814 5810 5807 5805 5802 5799 5796 5794 5791 5787 5784 5782 5780 5780 5779 5778 5777 5776 5774 5772 5770 5768 5766 5764 5762 5760 5758 5755 5754 5755 5750 5744 5740 5743 5749 5754 5753 5752 5751 5750
5820 5819 5817 5816 5813 5809 5807 5805 5801 5799 5796 5793 5789 5785 5781 5779 5778 5777 5777 5777 5776 5774 5772 5770 5768 5765 5763 5760 5759 5758 5755 5751 5752 5751 5745 5737 5733 5739 5746 5750 5750 5750 5749
5824 5821 5819 5817 5816 5815 5812 5807 5803 5800 5797 5794 5789 5784 5779 5775 5776 5777 5777 5776 5776 5774 5772 5770 5768 5765 5763 5761 5760 5759 5756 5753 5748 5749 5749 5747 5743 5736 5735 5742 5745 5747 5746
5825 5822 5822 5820 5818 5816 5813 5809 5804 5800 5798 5795 5791 5786 5782 5780 5779 5778 5776 5776 5775 5775 5773 5771 5768 5765 5763 5762 5761 5759 5757 5754 5751 5748 5747 5745 5743 5741 5734 5732 5737 5740 5743
5827 5825 5824 5820 5817 5815 5812 5808 5803 5800 5798 5795 5792 5788 5784 5781 5778 5776 5774 5774 5774 5774 5773 5771 5769 5766 5764 5763 5761 5760 5758 5755 5753 5750 5748 5745 5741 5739 5736 5732 5732 5733 5738
5827 5823 5819 5816 5814 5812 5809 5806 5802 5799 5798 5795 5792 5790 5786 5783 5780 5777 5775 5773 5772 5772 5772 5772 5769 5767 5765 5763 5762 5759 5757 5755 5752 5750 5748 5747 5745 5743 5739 5733 5731 5730 5733
5827 5823 5820 5818 5815 5811 5809 5806 5802 5799 5798 5795 5793 5790 5788 5785 5782 5780 5778 5776 5774 5773 5773 5772 5770 5767 5765 5763 5761 5758 5756 5755 5752 5751 5749 5747 5746 5744 5740 5736 5731 5726 5727
5826 5823 5820 5819 5816 5812 5810 5808 5804 5800 5798 5796 5792 5790 5788 5785 5783 5782 5780 5778 5776 5775 5773 5771 5769 5767 5765 5763 5760 5756 5754 5753 5751 5749 5748 5746 5745 5743 5741 5738 5734 5726 5720
5822 5821 5820 5819 5818 5815 5812 5808 5804 5801 5799 5796 5793 5791 5788 5785 5783 5781 5779 5777 5776 5775 5772 5770 5768 5765 5763 5761 5758 5755 5753 5751 5749 5748 5745 5744 5743 5741 5739 5737 5734 5730 5724
5819 5819 5818 5818 5815 5812 5808 5805 5802 5800 5797 5795 5792 5790 5787 5785 5781 5779 5778 5776 5775 5773 5770 5768 5765 5763 5760 5758 5755 5752 5751 5748 5747 5745 5743 5741 5740 5738 5736 5734 5731 5727 5724
5815 5814 5813 5812 5809 5806 5803 5801 5800 5798 5796 5794 5791 5788 5786 5782 5779 5776 5776 5774 5772 5770 5768 5765 5763 5760 5758 5756 5753 5750 5748 5746 5743 5742 5740 5738 5738 5735 5732 5730 5727 5724 5723
5807 5806 5805 5804 5804 5802 5799 5798 5796 5794 5793 5791 5788 5785 5782 5779 5777 5775 5773 5771 5769 5766 5764 5762 5760 5758 5755 5753 5751 5748 5746 5743 5742 5740 5737 5735 5733 5730 5728 5726 5723 5721 5720
5799 5798 5797 5797 5797 5796 5794 5793 5791 5790 5788 5785 5783 5780 5778 5776 5775 5773 5771 5768 5766 5763 5761 5759 5757 5755 5753 5750 5748 5745 5742 5740 5739 5737 5735 5733 5730 5727 5724 5722 5719 5716 5713
5787 5788 5788 5789 5788 5787 5787 5786 5784 5784 5782 5779 5777 5776 5774 5772 5770 5767 5766 5765 5762 5760 5758 5755 5752 5750 5748 5747 5744 5742 5739 5736 5734 5732 5730 5729 5727 5724 5721 5718 5714 5711 5706
5778 5779 5780 5781 5781 5780 5779 5778 5778 5778 5777 5773 5771 5770 5768 5766 5764 5762 5760 5758 5757 5755 5752 5749 5746 5744 5744 5743 5741 5738 5734 5732 5729 5726 5724 5723 5720 5719 5716 5713 5710 5706 5701
5772 5771 5772 5774 5774 5774 5773 5772 5772 5772 5770 5767 5765 5762 5761 5760 5758 5758 5755 5753 5751 5748 5745 5743 5740 5738 5738 5737 5735 5733 5729 5726 5724 5721 5718 5717 5715 5711 5708 5705 5703 5700 5698
5765 5765 5766 5766 5767 5768 5768 5767 5766 5764 5761 5758 5757 5755 5753 5751 5750 5749 5747 5746 5744 5742 5739 5736 5734 5732 5731 5731 5729 5727 5723 5720 5718 5715 5713 5709 5706 5704 5700 5697 5693 5691 5689
5759 5758 5759 5759 5759 5759 5759 5758 5756 5754 5752 5750 5749 5748 5746 5744 5742 5740 5739 5737 5736 5734 5732 5730 5727 5725 5724 5723 5722 5719 5715 5712 5710 5708 5705 5702 5699 5697 5693 5688 5684 5681 5680
5752 5751 5751 5751 5750 5749 5749 5747 5745 5743 5742 5742 5741 5741 5740 5738 5735 5734 5733 5731 5729 5727 5725 5722 5720 5718 5717 5716 5714 5712 5708 5704 5701 5699 5696 5694 5692 5689 5685 5680 5676 5672 5671
5744 5744 5743 5740 5740 5740 5739 5735 5734 5733 5734 5734 5733 5732 5731 5730 5729 5726 5725 5723 5721 5718 5715 5713 5710 5709 5708 5708 5706 5703 5700 5697 5693 5690 5687 5685 5683 5680 5676 5673 5669 5667 5664
5734 5735 5732 5730 5730 5730 5728 5725 5724 5725 5725 5725 5724 5723 5723 5722 5720 5717 5716 5714 5711 5708 5705 5703 5699 5699 5699 5698 5696 5694 5692 5690 5686 5681 5679 5676 5673 5670 5667 5664 5662 5659 5656
5725 5725 5722 5720 5719 5719 5718 5715 5715 5716 5715 5714 5714 5713 5713 5712 5710 5708 5706 5704 5702 5699 5696 5693 5691 5689 5689 5688 5687 5684 5682 5680 5677 5673 5670 5667 5663 5659 5655 5653 5651 5649 5647
5715 5714 5713 5710 5708 5709 5708 5707 5707 5707 5705 5704 5703 5703 5702 5700 5700 5699 5697 5695 5693 5690 5688 5685 5683 5681 5678 5677 5676 5674 5671 5669 5666 5662 5659 5656 5652 5649 5646 5643 5641 5639 5637
5704 5704 5702 5700 5699 5698 5698 5698 5698 5697 5694 5693 5692 5692 5691 5690 5688 5687 5686 5686 5685 5684 5681 5678 5676 5672 5669 5668 5666 5663 5661 5658 5655 5651 5646 5643 5640 5638 5635 5633 5632 5630 5628
5694 5692 5691 5690 5689 5689 5688 5688 5688 5686 5684 5682 5682 5681 5680 5679 5677 5676 5674 5674 5674 5674 5673 5671 5669 5666 5664 5661 5657 5655 5652 5649 5645 5641 5636 5633 5630 5628 5626 5624 5622 5620 5619